Regional Weather Roundup
Issued by NWS

Home | Current Version | Previous Version | Graphics & Text | Print | Product List | Glossary On
Versions: 1 2 3 4 5 6 7 8 9 10 11 12 13 14 15 16 17 18 19 20 21 22 23 24 25 26 27 28 29 30 31 32 33 34 35 36 37 38 39 40 41 42 43 44 45 46 47 48 49 50
000
ASUS45 KSLC 270810
RWRUT

UTAH REGIONAL WEATHER ROUNDUP
NATIONAL WEATHER SERVICE SALT LAKE CITY UT
200 AM MDT FRI MAR 27 2015

UTZ001>011-023>025-270900-

NORTHERN UTAH

CITY           SKY/WX    TMP DP  RH WIND       PRES   REMARKS
BRIGHAM CITY   CLEAR     41  33  73 CALM      30.34S
HILL AFB       CLEAR     45  28  51 E10       30.34F
LOGAN          CLEAR     39  33  79 N3        30.35S
OGDEN          CLEAR     43  29  57 S8        30.34S
PROVO AIRPORT  CLEAR     43  28  56 CALM      30.36S
SALT LAKE CITY CLEAR     45  29  53 SE6       30.34S
VERNAL         CLEAR     41  26  55 CALM      30.29R
WENDOVER       CLEAR     45  27  49 CALM      30.33F
HEBER CITY     CLEAR     30  25  80 CALM      30.38S
WEST JORDAN    CLEAR     39  30  70 SW3       30.35S

$$

UTZ012>022-026-027-270900-

SOUTHERN/CENTRAL UTAH

CITY           SKY/WX    TMP DP  RH WIND       PRES   REMARKS
BLANDING       CLEAR     44  19  36 N6        30.37S
BRYCE CANYON   CLEAR     29  23  78 W7        30.42F WCI  22
CEDAR CITY     CLEAR     38  24  57 CALM      30.35S
DELTA          CLEAR     40  24  52 CALM      30.35S
HANKSVILLE     CLEAR     37  18  44 CALM      30.30S
MILFORD        CLEAR     37  21  52 SW7       30.35S WCI  32
MOAB/CYNLANDS  CLEAR     42  14  32 NE3       30.26S
PRICE          CLEAR     52  21  29 NW12      30.31R
ST GEORGE      SUNNY     57  25  28 E7        30.25S
KANAB          CLEAR     36  23  60 NE7       30.35S WCI  30

$$

REGIONAL REPORTS     COLORADO/ARIZONA

CITY           SKY/WX    TMP DP  RH WIND       PRES   REMARKS
CRAIG, CO      CLEAR     32  26  78 CALM      30.33R
GRAND JUNCTION CLEAR     36  19  50 E6        30.28S WCI  31
RIFLE          CLEAR     36  23  59 CALM      30.33R
MONTROSE       PTCLDY    38  24  57 SE7       30.34S WCI  33
CORTEZ         CLEAR     31  18  58 E7        30.33S WCI  24
PAGE, AZ       CLEAR     51  21  30 CALM      30.28S
GRAND CANYON   PTCLDY    28  17  63 NE5       30.38S WCI  23
KINGMAN        CLEAR     49  23  36 CALM      30.23S
FLAGSTAFF      CLEAR     29  15  56 CALM      30.39R

$$

REGIONAL REPORTS    NEVADA/IDAHO/WYOMING

CITY           SKY/WX    TMP DP  RH WIND       PRES   REMARKS
LAS VEGAS, NV  CLEAR     64  27  24 S8        30.14S
ELY            CLEAR     37  21  52 S14       30.38S WCI  28
ELKO           CLEAR     41  29  62 NE6       30.32S
POCATELLO, ID  CLEAR     40  30  67 W3        30.32F
BURLEY         CLEAR     36  33  89 CALM      30.30F
EVANSTON, WY   PTCLDY    37  25  61 S6        30.39S WCI  32
ROCK SPRINGS   CLEAR     39  29  67 W17       30.31F WCI  30
KEMMERER       PTCLDY    34  30  86 NW8       30.36F WCI  27

$$


USA.gov is the U.S. government's official web portal to all federal, state and local government web resources and services.